Weather History for Glasgow, MT

Change the Weather History Date:

Sunday, June 30, 2013

  Actual Average Record
Temperature  
Mean Temperature 71 °F 68 °F  
Max Temperature 82 °F 81 °F 100 °F (1989)
Min Temperature 59 °F 54 °F 35 °F (1918)
Degree Days  
Heating Degree Days 0 1  
Month to date heating degree days 84 106  
Since 1 June heating degree days 84 105  
Since 1 July heating degree days 8578 8436  
Cooling Degree Days 6 4  
Month to date cooling degree days 49 75  
Year to date cooling degree days 58 92  
Since 1 June cooling degree days 49 75  
Growing Degree Days 20 (Base 50)    
Moisture  
Dew Point 56 °F    
Average Humidity 63    
Maximum Humidity 84    
Minimum Humidity 42    
Precipitation  
Precipitation T in 0.06 in 2.32 in (1938)
Month to date precipitation 4.19 2.33  
Year to date precipitation 11.46 6.15  
Snow  
Snow 0.00 in 0.00 in T in (1953)
Month to date snowfall 0.0 0.0  
Since 1 June snowfall 0.0 0.0  
Since 1 July snowfall 62.3 34.8  
Snow Depth 0.00 in    
Sea Level Pressure  
Sea Level Pressure 30.12 in    
Wind  
Wind Speed 12 mph (ESE)    
Max Wind Speed 17 mph    
Max Gust Speed 22 mph    
Visibility 10 miles    
Events      
T = Trace of Precipitation, MM = Missing Value Source: NWS Daily Summary

Daily Weather History Graph

Daily Weather History Graph

Search for Another Location

Airport:

Trip Planner

Search our weather history database for the weather conditions in past years. The results will help you decide how hot, cold, wet, or windy it might be!

Date:

Astronomy

Jun. 30, 2013 Rise Set
Actual Time 5:09 AM MDT 9:10 PM MDT
Civil Twilight 4:28 AM MDT 9:51 PM MDT
Nautical Twilight 3:30 AM MDT 10:49 PM MDT
Astronomical Twilight 1:52 AM MDT 12:25 AM MDT
Moon 12:33 AM MDT (6/30) 2:07 PM MDT (6/30)
Length of Visible Light 17h 23m
Length of Day
16h 00m
Last Quarter, 45% of the Moon is Illuminated
Jun 30
Last Quarter
Jul 8
New
Jul 15
First Quarter
Jul 22
Full
Jul 29
Last Quarter

Hourly Weather History & Observations

Time (MDT) Temp. Heat Index Dew Point Humidity Pressure Visibility Wind Dir Wind Speed Gust Speed Precip Events Conditions
12:53 AM 64.0 °F - 55.9 °F 75% 30.11 in 10.0 mi East 10.4 mph - N/A   Clear
1:53 AM 61.0 °F - 55.9 °F 83% 30.12 in 10.0 mi ESE 9.2 mph - N/A   Clear
2:53 AM 60.1 °F - 55.0 °F 83% 30.12 in 10.0 mi East 9.2 mph - N/A   Clear
3:53 AM 60.1 °F - 55.0 °F 83% 30.12 in 10.0 mi East 10.4 mph - N/A   Mostly Cloudy
4:53 AM 59.0 °F - 54.0 °F 83% 30.12 in 10.0 mi East 11.5 mph - N/A   Partly Cloudy
5:53 AM 60.1 °F - 55.0 °F 83% 30.12 in 10.0 mi East 12.7 mph - N/A   Scattered Clouds
6:53 AM 62.1 °F - 55.0 °F 78% 30.12 in 10.0 mi ESE 12.7 mph - N/A   Clear
7:53 AM 64.0 °F - 57.0 °F 78% 30.12 in 10.0 mi ESE 11.5 mph - N/A   Clear
8:53 AM 66.9 °F - 57.9 °F 73% 30.13 in 10.0 mi ESE 12.7 mph - N/A   Clear
9:53 AM 73.0 °F - 57.0 °F 57% 30.13 in 10.0 mi ESE 15.0 mph 20.7 mph N/A   Clear
10:53 AM 75.9 °F - 55.9 °F 50% 30.14 in 10.0 mi SE 16.1 mph - N/A   Clear
11:53 AM 75.9 °F - 57.0 °F 52% 30.14 in 10.0 mi SE 11.5 mph - N/A   Clear
12:53 PM 78.1 °F - 55.9 °F 46% 30.13 in 10.0 mi SE 10.4 mph - N/A   Clear
1:53 PM 78.1 °F - 57.9 °F 50% 30.12 in 10.0 mi ESE 10.4 mph - N/A   Clear
2:53 PM 78.1 °F - 57.9 °F 50% 30.11 in 10.0 mi ESE 11.5 mph - 0.00 in   Partly Cloudy
3:53 PM 81.0 °F 80.7 °F 55.0 °F 41% 30.11 in 10.0 mi ESE 13.8 mph - N/A   Clear
4:53 PM 81.0 °F 80.8 °F 55.9 °F 42% 30.11 in 10.0 mi ESE 9.2 mph 16.1 mph N/A   Clear
5:53 PM 81.0 °F 80.7 °F 55.0 °F 41% 30.11 in 10.0 mi ESE 11.5 mph - N/A   Clear
6:53 PM 79.0 °F - 55.9 °F 45% 30.10 in 10.0 mi ESE 11.5 mph - N/A   Clear
7:53 PM 77.0 °F - 57.0 °F 50% 30.11 in 10.0 mi East 10.4 mph - N/A   Clear
8:53 PM 72.0 °F - 57.0 °F 59% 30.11 in 10.0 mi East 10.4 mph - N/A   Clear
9:53 PM 69.1 °F - 55.9 °F 63% 30.12 in 10.0 mi East 11.5 mph - N/A   Clear
10:53 PM 68.0 °F - 59.0 °F 73% 30.12 in 10.0 mi East 11.5 mph - N/A   Clear
11:53 PM 66.9 °F - 59.0 °F 76% 30.13 in 10.0 mi East 11.5 mph - N/A   Clear